| time (UTC) | temp C | wind direction | speed KPH | gust KPH | rain 1hr cm | rain 24hr cm | rain mn cm | humidity % | barometer mb |
| 20260510010740 | 32 | 232 | 6.4 | 17.7 | 0.00 | 0.00 | 0.00 | 8 | 1009.9 |
| 20260510005731 | 32 | 163 | 11.3 | 19.3 | 0.00 | 0.00 | 0.00 | 8 | 1009.9 |
| 20260510002726 | 33 | 207 | 11.3 | 20.9 | 0.00 | 0.00 | 0.00 | 8 | 1009.9 |
| 20260510001723 | 33 | 259 | 6.4 | 20.9 | 0.00 | 0.00 | 0.00 | 8 | 1009.9 |
| 20260510000719 | 33 | 200 | 11.3 | 19.3 | 0.00 | 0.00 | 0.00 | 8 | 1009.9 |
| 20260509235726 | 33 | 186 | 8.0 | 19.3 | 0.00 | 0.00 | 0.00 | 8 | 1010.0 |
| 20260509233724 | 33 | 256 | 6.4 | 16.1 | 0.00 | 0.00 | 0.00 | 7 | 1010.3 |
| 20260509232718 | 33 | 201 | 9.7 | 17.7 | 0.00 | 0.00 | 0.00 | 7 | 1010.5 |
| 20260509231736 | 34 | 238 | 6.4 | 14.5 | 0.00 | 0.00 | 0.00 | 7 | 1010.5 |
| 20260509230725 | 34 | 105 | 1.6 | 11.3 | 0.00 | 0.00 | 0.00 | 7 | 1010.6 |
| 20260509224718 | 33 | 193 | 1.6 | 14.5 | 0.00 | 0.00 | 0.00 | 7 | 1011.1 |
| 20260509223731 | 33 | 142 | 8.0 | 17.7 | 0.00 | 0.00 | 0.00 | 7 | 1011.1 |
| 20260509221726 | 33 | 244 | 6.4 | 12.9 | 0.00 | 0.00 | 0.00 | 7 | 1011.3 |
| 20260509220722 | 33 | 105 | 3.2 | 12.9 | 0.00 | 0.00 | 0.00 | 7 | 1011.5 |
| 20260509215720 | 33 | 125 | 12.9 | 17.7 | 0.00 | 0.00 | 0.00 | 7 | 1011.7 |
| 20260509214731 | 33 | 232 | 8.0 | 22.5 | 0.00 | 0.00 | 0.00 | 7 | 1012.0 |
| 20260509212723 | 34 | 190 | 16.1 | 27.4 | 0.00 | 0.00 | 0.00 | 7 | 1012.2 |
| 20260509210725 | 33 | 321 | 9.7 | 19.3 | 0.00 | 0.00 | 0.00 | 7 | 1012.6 |
| 20260509205732 | 33 | 273 | 3.2 | 12.9 | 0.00 | 0.00 | 0.00 | 7 | 1012.7 |
| 20260509204730 | 33 | 122 | 8.0 | 25.7 | 0.00 | 0.00 | 0.00 | 7 | 1012.9 |
| 20260509202717 | 33 | 209 | 14.5 | 25.7 | 0.00 | 0.00 | 0.00 | 7 | 1013.4 |
| 20260509201717 | 33 | 205 | 11.3 | 22.5 | 0.00 | 0.00 | 0.00 | 7 | 1013.5 |
| 20260509200728 | 33 | 164 | 12.9 | 24.1 | 0.00 | 0.00 | 0.00 | 8 | 1013.6 |
| 20260509193720 | 32 | 202 | 3.2 | 19.3 | 0.00 | 0.00 | 0.00 | 9 | 1014.0 |
| 20260509191724 | 32 | 239 | 11.3 | 16.1 | 0.00 | 0.00 | 0.00 | 10 | 1014.2 |
| 20260509185726 | 31 | 269 | 4.8 | 9.7 | 0.00 | 0.00 | 0.00 | 11 | 1014.4 |
| 20260509184720 | 31 | 264 | 6.4 | 14.5 | 0.00 | 0.00 | 0.00 | 11 | 1014.6 |
| 20260509183717 | 30 | 248 | 9.7 | 14.5 | 0.00 | 0.00 | 0.00 | 12 | 1014.7 |
| 20260509182726 | 30 | 305 | 6.4 | 12.9 | 0.00 | 0.00 | 0.00 | 12 | 1014.9 |
| 20260509181719 | 30 | 239 | 6.4 | 12.9 | 0.00 | 0.00 | 0.00 | 12 | 1015.1 |
| 20260509180713 | 30 | 251 | 6.4 | 12.9 | 0.00 | 0.00 | 0.00 | 13 | 1015.2 |
| 20260509175724 | 29 | 280 | 4.8 | 14.5 | 0.00 | 0.00 | 0.00 | 14 | 1015.3 |
| 20260509174717 | 29 | 265 | 3.2 | 14.5 | 0.00 | 0.00 | 0.00 | 14 | 1015.4 |
| 20260509172712 | 28 | 247 | 3.2 | 11.3 | 0.00 | 0.00 | 0.00 | 15 | 1015.4 |
| 20260509171721 | 28 | 277 | 0.0 | 12.9 | 0.00 | 0.00 | 0.00 | 14 | 1015.6 |
| 20260509170713 | 28 | 237 | 1.6 | 8.0 | 0.00 | 0.00 | 0.00 | 14 | 1015.6 |
| 20260509165710 | 27 | 259 | 4.8 | 9.7 | 0.00 | 0.00 | 0.00 | 15 | 1015.5 |
| 20260509164724 | 26 | 253 | 3.2 | 9.7 | 0.00 | 0.00 | 0.00 | 15 | 1015.5 |
| 20260509163718 | 26 | 237 | 4.8 | 9.7 | 0.00 | 0.00 | 0.00 | 17 | 1015.7 |
| 20260509162712 | 25 | 212 | 1.6 | 8.0 | 0.00 | 0.00 | 0.00 | 17 | 1015.6 |
| 20260509160725 | 25 | 308 | 4.8 | 9.7 | 0.00 | 0.00 | 0.00 | 19 | 1015.7 |
| 20260509155721 | 24 | 259 | 6.4 | 11.3 | 0.00 | 0.00 | 0.00 | 19 | 1015.7 |
| 20260509153727 | 24 | 205 | 4.8 | 9.7 | 0.00 | 0.00 | 0.00 | 20 | 1015.7 |
| 20260509152715 | 23 | 234 | 4.8 | 8.0 | 0.00 | 0.00 | 0.00 | 20 | 1015.8 |
| 20260509151709 | 23 | 207 | 4.8 | 12.9 | 0.00 | 0.00 | 0.00 | 21 | 1015.8 |
| 20260509150717 | 23 | 160 | 6.4 | 11.3 | 0.00 | 0.00 | 0.00 | 21 | 1015.8 |
| 20260509144719 | 22 | 259 | 4.8 | 9.7 | 0.00 | 0.00 | 0.00 | 24 | 1015.6 |
| 20260509143714 | 21 | 259 | 3.2 | 3.2 | 0.00 | 0.00 | 0.00 | 24 | 1015.7 |
| 20260509142709 | 21 | 269 | 1.6 | 3.2 | 0.00 | 0.00 | 0.00 | 25 | 1015.6 |
| 20260509141724 | 20 | 269 | 0.0 | 1.6 | 0.00 | 0.00 | 0.00 | 25 | 1015.6 |
| 20260509140719 | 20 | 269 | 0.0 | 3.2 | 0.00 | 0.00 | 0.00 | 27 | 1015.6 |
| 20260509135713 | 18 | 212 | 0.0 | 1.6 | 0.00 | 0.00 | 0.00 | 27 | 1015.6 |
| 20260509133707 | 17 | 182 | 0.0 | 1.6 | 0.00 | 0.00 | 0.00 | 29 | 1014.7 |
| 20260509132717 | 16 | 113 | 0.0 | 1.6 | 0.00 | 0.00 | 0.00 | 28 | 1014.8 |
| 20260509130711 | 14 | 94 | 8.0 | 12.9 | 0.00 | 0.00 | 0.00 | 32 | 1014.7 |
| 20260509125707 | 13 | 41 | 1.6 | 8.0 | 0.00 | 0.00 | 0.00 | 33 | 1014.8 |
| 20260509124716 | 12 | 40 | 3.2 | 8.0 | 0.00 | 0.00 | 0.00 | 33 | 1014.7 |
| 20260509123711 | 12 | 5 | 4.8 | 11.3 | 0.00 | 0.00 | 0.00 | 33 | 1014.6 |
| 20260509121721 | 13 | 173 | 3.2 | 6.4 | 0.00 | 0.00 | 0.00 | 33 | 1014.0 |
| 20260509120720 | 13 | 78 | 1.6 | 3.2 | 0.00 | 0.00 | 0.00 | 32 | 1013.5 |
| 20260509115715 | 14 | 84 | 4.8 | 8.0 | 0.00 | 0.00 | 0.00 | 31 | 1013.3 |
| 20260509114710 | 15 | 90 | 1.6 | 3.2 | 0.00 | 0.00 | 0.00 | 29 | 1014.1 |
| 20260509113712 | 15 | 11 | 0.0 | 1.6 | 0.00 | 0.00 | 0.00 | 28 | 1013.9 |
| 20260509112711 | 15 | 11 | 0.0 | 1.6 | 0.00 | 0.00 | 0.00 | 27 | 1013.8 |
| 20260509111710 | 15 | 10 | 0.0 | 1.6 | 0.00 | 0.00 | 0.00 | 27 | 1013.7 |
| 20260509105707 | 16 | 10 | 1.6 | 6.4 | 0.00 | 0.00 | 0.00 | 25 | 1013.7 |
| 20260509104702 | 16 | 360 | 4.8 | 6.4 | 0.00 | 0.00 | 0.00 | 25 | 1013.7 |
| 20260509103714 | 17 | 44 | 0.0 | 3.2 | 0.00 | 0.00 | 0.00 | 24 | 1013.5 |
| 20260509102709 | 17 | 58 | 1.6 | 4.8 | 0.00 | 0.00 | 0.00 | 24 | 1013.5 |
| 20260509101709 | 17 | 88 | 0.0 | 9.7 | 0.00 | 0.00 | 0.00 | 22 | 1013.5 |
| 20260509100715 | 17 | 97 | 3.2 | 6.4 | 0.00 | 0.00 | 0.00 | 22 | 1013.4 |
| 20260509095711 | 17 | 93 | 4.8 | 6.4 | 0.00 | 0.00 | 0.00 | 22 | 1012.4 |
| 20260509094707 | 18 | 102 | 3.2 | 9.7 | 0.00 | 0.00 | 0.00 | 22 | 1012.5 |
| 20260509093707 | 18 | 93 | 4.8 | 6.4 | 0.00 | 0.00 | 0.00 | 21 | 1012.4 |
| 20260509092704 | 18 | 97 | 4.8 | 11.3 | 0.00 | 0.00 | 0.00 | 21 | 1012.4 |
| 20260509091659 | 18 | 101 | 3.2 | 8.0 | 0.00 | 0.00 | 0.00 | 21 | 1012.5 |
| 20260509085716 | 18 | 90 | 6.4 | 11.3 | 0.00 | 0.00 | 0.00 | 21 | 1012.6 |
| 20260509084713 | 18 | 98 | 6.4 | 11.3 | 0.00 | 0.00 | 0.00 | 21 | 1012.7 |
| 20260509082718 | 19 | 96 | 1.6 | 6.4 | 0.00 | 0.00 | 0.00 | 20 | 1012.8 |
| 20260509081708 | 19 | 105 | 3.2 | 4.8 | 0.00 | 0.00 | 0.00 | 20 | 1012.6 |
| 20260509080700 | 20 | 91 | 1.6 | 6.4 | 0.00 | 0.00 | 0.00 | 19 | 1012.7 |
| 20260509075715 | 20 | 86 | 3.2 | 8.0 | 0.00 | 0.00 | 0.00 | 19 | 1012.9 |
| 20260509073711 | 20 | 107 | 3.2 | 6.4 | 0.00 | 0.00 | 0.00 | 19 | 1012.9 |
| 20260509072705 | 20 | 102 | 4.8 | 9.7 | 0.00 | 0.00 | 0.00 | 19 | 1012.9 |
| 20260509070711 | 20 | 105 | 3.2 | 6.4 | 0.00 | 0.00 | 0.00 | 19 | 1013.2 |
| 20260509065702 | 20 | 107 | 1.6 | 4.8 | 0.00 | 0.00 | 0.00 | 19 | 1013.2 |
| 20260509064714 | 20 | 97 | 1.6 | 4.8 | 0.00 | 0.00 | 0.00 | 18 | 1013.3 |
| 20260509062701 | 20 | 87 | 1.6 | 8.0 | 0.00 | 0.00 | 0.00 | 19 | 1013.2 |
| 20260509060712 | 20 | 99 | 3.2 | 11.3 | 0.00 | 0.00 | 0.00 | 19 | 1013.3 |
| 20260509055708 | 20 | 90 | 1.6 | 11.3 | 0.00 | 0.00 | 0.00 | 19 | 1013.4 |
| 20260509054707 | 19 | 97 | 4.8 | 11.3 | 0.00 | 0.00 | 0.00 | 20 | 1013.4 |
| 20260509053713 | 19 | 81 | 6.4 | 8.0 | 0.00 | 0.00 | 0.00 | 20 | 1013.5 |
| 20260509051712 | 20 | 82 | 4.8 | 8.0 | 0.00 | 0.00 | 0.00 | 19 | 1013.7 |
| 20260509050702 | 20 | 76 | 4.8 | 6.4 | 0.00 | 0.00 | 0.00 | 19 | 1013.8 |
| 20260509045659 | 21 | 88 | 6.4 | 6.4 | 0.00 | 0.00 | 0.00 | 18 | 1013.8 |
| 20260509044713 | 20 | 94 | 1.6 | 4.8 | 0.00 | 0.00 | 0.00 | 18 | 1013.8 |
| 20260509043709 | 20 | 105 | 3.2 | 6.4 | 0.00 | 0.00 | 0.00 | 19 | 1013.8 |
| 20260509042703 | 20 | 105 | 0.0 | 4.8 | 0.00 | 0.00 | 0.00 | 20 | 1013.7 |
| 20260509041702 | 20 | 90 | 3.2 | 6.4 | 0.00 | 0.00 | 0.00 | 20 | 1013.5 |
| 20260509040703 | 20 | 146 | 1.6 | 8.0 | 0.00 | 0.00 | 0.00 | 21 | 1013.5 |
| 20260509035701 | 20 | 94 | 3.2 | 4.8 | 0.00 | 0.00 | 0.00 | 21 | 1013.4 |
| 20260509034656 | 20 | 115 | 1.6 | 4.8 | 0.00 | 0.00 | 0.00 | 21 | 1013.1 |
| 20260509033657 | 21 | 71 | 3.2 | 8.0 | 0.00 | 0.00 | 0.00 | 20 | 1012.9 |
| 20260509032708 | 21 | 76 | 4.8 | 8.0 | 0.00 | 0.00 | 0.00 | 19 | 1012.8 |
| 20260509031704 | 22 | 72 | 4.8 | 8.0 | 0.00 | 0.00 | 0.00 | 18 | 1012.7 |
| 20260509030701 | 23 | 63 | 3.2 | 6.4 | 0.00 | 0.00 | 0.00 | 16 | 1012.5 |
| 20260509025657 | 25 | 88 | 1.6 | 3.2 | 0.00 | 0.00 | 0.00 | 14 | 1012.4 |
| 20260509024709 | 26 | 35 | 0.0 | 1.6 | 0.00 | 0.00 | 0.00 | 13 | 1012.2 |
| 20260509023707 | 26 | 34 | 0.0 | 1.6 | 0.00 | 0.00 | 0.00 | 12 | 1012.1 |
| 20260509022701 | 27 | 44 | 0.0 | 0.0 | 0.00 | 0.00 | 0.00 | 12 | 1011.9 |
| 20260509021711 | 27 | 46 | 0.0 | 3.2 | 0.00 | 0.00 | 0.00 | 11 | 1011.8 |
| 20260509020706 | 28 | 30 | 0.0 | 4.8 | 0.00 | 0.00 | 0.00 | 10 | 1011.8 |
| 20260509015702 | 28 | 360 | 3.2 | 6.4 | 0.00 | 0.00 | 0.00 | 9 | 1011.8 |
| 20260509013657 | 29 | 13 | 1.6 | 8.0 | 0.00 | 0.00 | 0.00 | 8 | 1011.6 |
| 20260509012711 | 30 | 355 | 4.8 | 8.0 | 0.00 | 0.00 | 0.00 | 8 | 1011.6 |
| 20260509011704 | 30 | 23 | 8.0 | 16.1 | 0.00 | 0.00 | 0.00 | 7 | 1011.5 |